CW4226 Weather Reports


time (UTC)temp
C
wind
direction
speed
KPH
gust
KPH
rain 1hr
cm
rain 24hr
cm
rain mn
cm
humidity
%
barometer
mb
20260505004343 18 230 3.2 4.8 0.00 0.00 0.00 39 1003.6
20260505003841 18 77 4.8 12.9 0.00 0.00 0.00 38 1003.5
20260505003338 18 223 0.0 8.0 0.00 0.00 0.00 37 1003.4
20260505003056 18 231 4.8 16.1 0.00 0.00 0.00 37 1002.0
20260505002834 18 231 6.4 20.9 0.00 0.00 0.00 37 1003.2
20260505002331 18 261 4.8 9.7 0.00 0.00 0.00 37 1003.6
20260505001829 18 228 0.0 4.8 0.00 0.00 0.00 37 1003.1
20260505001555 19 247 4.8 14.5 0.00 0.00 0.00 35 1001.6
20260505001326 18 249 3.2 16.1 0.00 0.00 0.00 37 1003.0
20260505000823 19 226 6.4 6.4 0.00 0.00 0.00 37 1003.1
20260505000321 19 260 0.0 3.2 0.00 0.00 0.00 36 1003.0
20260505000055 20 238 1.6 11.3 0.00 0.00 0.00 34 1001.7
20260504235817 20 293 0.0 8.0 0.00 0.00 0.00 34 1003.0
20260504235314 20 299 3.2 12.9 0.00 0.00 0.00 34 1002.8
20260504234811 19 269 1.6 8.0 0.00 0.00 0.00 35 1002.9
20260504234554 20 156 4.8 11.3 0.00 0.00 0.00 33 1001.7
20260504234309 20 239 6.4 6.4 0.00 0.00 0.00 35 1003.0
20260504233805 20 3 0.0 8.0 0.00 0.00 0.00 35 1002.8
20260504233301 20 278 3.2 12.9 0.00 0.00 0.00 34 1002.8
20260504233055 20 226 1.6 14.5 0.00 0.00 0.00 34 1001.6
20260504232758 20 265 3.2 12.9 0.00 0.00 0.00 35 1002.8
20260504232255 20 220 4.8 8.0 0.00 0.00 0.00 34 1002.8
20260504231752 20 247 4.8 9.7 0.00 0.00 0.00 35 1002.7
20260504231248 20 238 6.4 16.1 0.00 0.00 0.00 34 1002.5
20260504230744 20 231 8.0 9.7 0.00 0.00 0.00 35 1002.6
20260504230243 20 250 8.0 14.5 0.00 0.00 0.00 34 1002.6
20260504230055 20 229 8.0 14.5 0.00 0.00 0.00 31 1001.4
20260504225741 20 222 6.4 8.0 0.00 0.00 0.00 34 1002.6
20260504225237 20 222 6.4 8.0 0.00 0.00 0.00 33 1002.5
20260504224734 20 39 0.0 6.4 0.00 0.00 0.00 33 1002.5
20260504224555 20 230 4.8 11.3 0.00 0.00 0.00 32 1001.4
20260504224231 20 45 1.6 3.2 0.00 0.00 0.00 34 1002.6
20260504223728 20 273 3.2 6.4 0.00 0.00 0.00 34 1002.5
20260504223223 20 28 3.2 8.0 0.00 0.00 0.00 33 1002.5
20260504223056 20 230 3.2 19.3 0.00 0.00 0.00 32 1001.4
20260504222721 20 232 8.0 8.0 0.00 0.00 0.00 34 1002.5
20260504222217 20 232 12.9 14.5 0.00 0.00 0.00 34 1002.3
20260504221715 20 173 3.2 11.3 0.00 0.00 0.00 33 1002.6
20260504221557 20 221 3.2 11.3 0.00 0.00 0.00 32 1001.4
20260504221212 20 306 0.0 6.4 0.00 0.00 0.00 34 1002.4
20260504220708 20 256 6.4 6.4 0.00 0.00 0.00 33 1002.5
20260504220206 20 287 4.8 6.4 0.00 0.00 0.00 34 1002.5
20260504220054 20 230 3.2 12.9 0.00 0.00 0.00 32 1001.4
20260504215702 21 231 11.3 12.9 0.00 0.00 0.00 33 1002.6
20260504215159 20 254 4.8 8.0 0.00 0.00 0.00 32 1002.5
20260504214655 20 231 6.4 12.9 0.00 0.00 0.00 34 1002.5
20260504214554 20 222 8.0 16.1 0.00 0.00 0.00 31 1001.4
20260504214152 20 349 1.6 8.0 0.00 0.00 0.00 34 1002.4
20260504213648 21 260 1.6 6.4 0.00 0.00 0.00 33 1002.6
20260504213145 20 15 3.2 4.8 0.00 0.00 0.00 33 1002.4
20260504213056 20 222 3.2 12.9 0.00 0.00 0.00 32 1001.4
20260504212641 20 236 9.7 9.7 0.00 0.00 0.00 33 1002.5
20260504212138 20 318 0.0 16.1 0.00 0.00 0.00 33 1002.4
20260504211636 20 240 4.8 9.7 0.00 0.00 0.00 33 1002.5
20260504211555 21 225 4.8 9.7 0.00 0.00 0.00 33 1001.4
20260504211132 21 236 4.8 12.9 0.00 0.00 0.00 33 1002.5
20260504210630 21 252 3.2 9.7 0.00 0.00 0.00 33 1002.7
20260504210126 20 303 0.0 6.4 0.00 0.00 0.00 33 1002.9
20260504210055 20 241 3.2 11.3 0.00 0.00 0.00 32 1001.7
20260504205624 20 250 3.2 9.7 0.00 0.00 0.00 34 1002.8
20260504205121 20 227 9.7 9.7 0.00 0.00 0.00 35 1003.0
20260504204620 21 229 6.4 16.1 0.00 0.00 0.00 32 1002.9
20260504204555 21 237 4.8 14.5 0.00 0.00 0.00 32 1001.8
20260504204118 21 299 3.2 11.3 0.00 0.00 0.00 32 1003.0
20260504203616 20 233 9.7 9.7 0.00 0.00 0.00 36 1003.2
20260504203113 20 137 3.2 14.5 0.00 0.00 0.00 32 1003.3
20260504203055 20 233 4.8 16.1 0.00 0.00 0.00 31 1002.1
20260504202608 21 252 14.5 14.5 0.00 0.00 0.00 34 1003.3
20260504202105 21 230 6.4 9.7 0.00 0.00 0.00 35 1003.5
20260504201602 21 29 6.4 11.3 0.00 0.00 0.00 32 1003.3
20260504201554 21 245 4.8 11.3 0.00 0.00 0.00 30 1002.3
20260504201100 21 234 9.7 9.7 0.00 0.00 0.00 35 1003.3
20260504200556 22 185 3.2 8.0 0.00 0.00 0.00 34 1003.4
20260504200053 22 233 3.2 9.7 0.00 0.00 0.00 35 1003.5
20260504195549 23 224 16.1 19.3 0.00 0.00 0.00 30 1003.3
20260504195046 22 293 0.0 6.4 0.00 0.00 0.00 32 1003.6
20260504194555 22 233 3.2 8.0 0.00 0.00 0.00 28 1002.3
20260504194543 22 248 3.2 9.7 0.00 0.00 0.00 30 1003.6
20260504194038 23 234 6.4 6.4 0.00 0.00 0.00 31 1003.7
20260504193535 23 265 3.2 6.4 0.00 0.00 0.00 34 1003.9
20260504193056 22 229 3.2 14.5 0.00 0.00 0.00 36 1002.5
20260504193034 22 243 4.8 8.0 0.00 0.00 0.00 37 1003.8
20260504192531 22 227 6.4 16.1 0.00 0.00 0.00 30 1003.8
20260504192029 21 30 3.2 6.4 0.00 0.00 0.00 29 1004.1
20260504191556 22 226 4.8 8.0 0.00 0.00 0.00 31 1002.8
20260504191527 21 191 0.0 9.7 0.00 0.00 0.00 30 1004.1
20260504191023 22 288 3.2 6.4 0.00 0.00 0.00 29 1004.2
20260504190519 22 262 4.8 9.7 0.00 0.00 0.00 35 1004.1
20260504190055 22 221 3.2 19.3 0.00 0.00 0.00 33 1002.7
20260504190015 22 227 6.4 6.4 0.00 0.00 0.00 35 1004.1
20260504185512 21 240 8.0 17.7 0.00 0.00 0.00 34 1004.3
20260504185009 22 227 19.3 20.9 0.00 0.00 0.00 31 1004.4
20260504184555 21 218 3.2 14.5 0.00 0.00 0.00 31 1002.8
20260504184504 21 242 6.4 9.7 0.00 0.00 0.00 33 1004.1
20260504184000 21 224 4.8 14.5 0.00 0.00 0.00 34 1004.2
20260504183457 21 233 1.6 3.2 0.00 0.00 0.00 33 1004.2
20260504183056 21 241 4.8 9.7 0.00 0.00 0.00 30 1002.8
20260504182955 21 275 3.2 9.7 0.00 0.00 0.00 37 1004.2
20260504182452 22 246 1.6 8.0 0.00 0.00 0.00 39 1004.3
20260504181949 22 242 4.8 8.0 0.00 0.00 0.00 34 1004.4
20260504181555 21 253 3.2 14.5 0.00 0.00 0.00 37 1003.0
20260504181446 21 265 3.2 8.0 0.00 0.00 0.00 35 1004.3
20260504180945 20 304 3.2 6.4 0.00 0.00 0.00 37 1004.6
20260504180443 20 225 4.8 16.1 0.00 0.00 0.00 32 1004.6
20260504180055 20 247 4.8 22.5 0.00 0.00 0.00 35 1003.3
20260504175941 20 235 4.8 14.5 0.00 0.00 0.00 41 1004.8
20260504175438 20 233 16.1 16.1 0.00 0.00 0.00 36 1004.8
20260504174935 20 309 0.0 6.4 0.00 0.00 0.00 39 1004.5
20260504174555 20 233 4.8 16.1 0.00 0.00 0.00 39 1003.4
20260504174433 20 244 4.8 11.3 0.00 0.00 0.00 36 1004.6
20260504173930 20 227 4.8 12.9 0.00 0.00 0.00 33 1004.7
20260504173426 21 233 8.0 12.9 0.00 0.00 0.00 39 1004.9
20260504173055 20 263 3.2 16.1 0.00 0.00 0.00 33 1003.3
20260504172924 20 227 8.0 12.9 0.00 0.00 0.00 38 1004.8
20260504172420 20 255 6.4 12.9 0.00 0.00 0.00 38 1004.8
20260504171916 21 250 8.0 14.5 0.00 0.00 0.00 32 1005.0
20260504171555 20 225 3.2 14.5 0.00 0.00 0.00 39 1003.6
20260504171414 20 218 6.4 9.7 0.00 0.00 0.00 34 1004.8
20260504170910 20 233 6.4 8.0 0.00 0.00 0.00 40 1005.2
20260504170407 20 264 3.2 17.7 0.00 0.00 0.00 37 1005.2
20260504160326 18 257 8.0 9.7 0.00 0.00 0.00 36 1006.1
20260504150750 17 241 3.2 9.7 0.00 0.00 0.00 44 1006.7
20260504150247 17 252 4.8 9.7 0.00 0.00 0.00 37 1006.8
20260504141217 15 271 8.0 8.0 0.00 0.00 0.00 37 1007.2
20260504140714 14 240 12.9 20.9 0.00 0.00 0.00 36 1007.2
20260504140209 14 227 4.8 4.8 0.00 0.00 0.00 39 1007.4
20260504130637 12 234 6.4 11.3 0.00 0.00 0.00 39 1007.6
20260504130134 12 51 3.2 11.3 0.00 0.00 0.00 40 1007.9
20260504110525 4 57 1.6 3.2 0.00 0.00 0.00 74 1008.4
20260504100442 2 54 3.2 4.8 0.00 0.00 0.00 75 1008.1
20260504081840 3 62 3.2 4.8 0.00 0.00 0.00 69 1008.4
20260504081554 4 92 0.0 1.6 0.00 0.00 0.00 68 1007.5
20260504081337 4 62 3.2 6.4 0.00 0.00 0.00 69 1008.6
20260504080833 4 66 3.2 4.8 0.00 0.00 0.00 68 1008.2
20260504080331 4 70 3.2 4.8 0.00 0.00 0.00 69 1008.3
20260504070258 6 67 3.2 3.2 0.00 0.00 0.00 61 1008.1
20260504060218 9 61 1.6 3.2 0.00 0.00 0.00 46 1008.2
20260504050646 6 72 3.2 4.8 0.00 0.00 0.00 63 1008.3
20260504050143 5 66 3.2 4.8 0.00 0.00 0.00 62 1008.2
20260504045640 6 41 3.2 4.8 0.00 0.00 0.00 61 1008.2
20260504045140 6 68 3.2 4.8 0.00 0.00 0.00 60 1008.2
20260504044638 5 72 3.2 4.8 0.00 0.00 0.00 63 1008.2
20260504044555 6 116 0.0 4.8 0.00 0.00 0.00 64 1007.2
20260504044135 6 50 4.8 6.4 0.00 0.00 0.00 61 1008.2
20260504043632 6 69 4.8 4.8 0.00 0.00 0.00 58 1008.3
20260504043129 5 68 3.2 4.8 0.00 0.00 0.00 63 1008.3
20260504043055 6 74 1.6 3.2 0.00 0.00 0.00 63 1007.1
20260504042626 5 44 3.2 4.8 0.00 0.00 0.00 62 1008.0
20260504042123 5 55 3.2 4.8 0.00 0.00 0.00 63 1007.9
20260504041618 6 80 3.2 4.8 0.00 0.00 0.00 62 1008.0
20260504041115 6 35 1.6 4.8 0.00 0.00 0.00 60 1007.9
20260504040612 6 52 4.8 4.8 0.00 0.00 0.00 60 1007.8
20260504040109 6 54 3.2 4.8 0.00 0.00 0.00 61 1007.9
20260504040054 6 72 0.0 3.2 0.00 0.00 0.00 62 1007.0
20260504035606 6 70 1.6 4.8 0.00 0.00 0.00 61 1008.0
20260504035102 6 46 3.2 6.4 0.00 0.00 0.00 59 1007.8
20260504034600 6 48 3.2 4.8 0.00 0.00 0.00 60 1007.9
20260504034556 6 92 0.0 3.2 0.00 0.00 0.00 61 1007.0
20260504034057 6 63 3.2 6.4 0.00 0.00 0.00 60 1007.9
20260504033555 6 66 4.8 4.8 0.00 0.00 0.00 59 1008.0
20260504033052 5 64 3.2 4.8 0.00 0.00 0.00 60 1008.0
20260504032549 5 63 3.2 4.8 0.00 0.00 0.00 63 1007.9
20260504032045 5 69 3.2 4.8 0.00 0.00 0.00 66 1007.8
20260504031542 5 66 4.8 6.4 0.00 0.00 0.00 66 1007.8
20260504031038 5 46 4.8 6.4 0.00 0.00 0.00 67 1007.8
20260504030536 5 62 3.2 4.8 0.00 0.00 0.00 67 1007.9
20260504030054 5 53 0.0 3.2 0.00 0.00 0.00 66 1007.1
20260504030032 5 77 1.6 4.8 0.00 0.00 0.00 66 1007.9
20260504025530 5 58 3.2 4.8 0.00 0.00 0.00 65 1007.9
20260504025026 5 76 0.0 6.4 0.00 0.00 0.00 65 1007.8
20260504024523 5 77 3.2 4.8 0.00 0.00 0.00 65 1007.9
20260504024020 5 67 3.2 4.8 0.00 0.00 0.00 64 1007.8
20260504023517 5 42 4.8 4.8 0.00 0.00 0.00 65 1008.0
20260504023055 6 41 0.0 1.6 0.00 0.00 0.00 65 1007.1
20260504023012 5 66 3.2 3.2 0.00 0.00 0.00 66 1008.0
20260504022508 5 49 3.2 4.8 0.00 0.00 0.00 64 1007.8
20260504022005 6 45 3.2 4.8 0.00 0.00 0.00 64 1007.9
20260504021554 6 39 0.0 1.6 0.00 0.00 0.00 63 1007.0
20260504021503 6 56 3.2 4.8 0.00 0.00 0.00 64 1008.0
20260504020959 6 47 4.8 4.8 0.00 0.00 0.00 65 1007.8
20260504020456 6 64 3.2 4.8 0.00 0.00 0.00 63 1008.0
20260504020054 7 40 0.0 0.0 0.00 0.00 0.00 61 1007.1
20260504015953 6 54 3.2 3.2 0.00 0.00 0.00 62 1008.1
20260504015449 6 61 3.2 4.8 0.00 0.00 0.00 62 1007.8
20260504014945 6 54 3.2 3.2 0.00 0.00 0.00 62 1007.9
20260504014554 7 40 0.0 3.2 0.00 0.00 0.00 60 1007.1
20260504014441 6 51 3.2 4.8 0.00 0.00 0.00 62 1007.9
20260504013938 6 64 3.2 4.8 0.00 0.00 0.00 60 1007.8
20260504013437 7 54 3.2 4.8 0.00 0.00 0.00 60 1007.8
20260504012932 7 63 3.2 4.8 0.00 0.00 0.00 59 1007.7
20260504012431 7 61 3.2 3.2 0.00 0.00 0.00 59 1007.6
20260504011928 7 53 1.6 4.8 0.00 0.00 0.00 58 1007.8
20260504011555 8 5 0.0 1.6 0.00 0.00 0.00 55 1006.7
20260504011425 7 69 3.2 4.8 0.00 0.00 0.00 57 1007.7
20260504010920 7 64 3.2 4.8 0.00 0.00 0.00 57 1007.7
20260504010416 8 66 3.2 3.2 0.00 0.00 0.00 56 1007.6
20260504010054 9 5 0.0 1.6 0.00 0.00 0.00 52 1006.6
20260504005913 8 57 3.2 3.2 0.00 0.00 0.00 55 1007.7
20260504005409 8 51 3.2 4.8 0.00 0.00 0.00 54 1007.3
20260504004908 8 54 3.2 4.8 0.00 0.00 0.00 53 1007.5